Tracking 18957 objects as of 23-Jan-2018
HD Live streaming from Space Station
objects crossing your sky now

COSMOS 1637

Track COSMOS 1637 now!
10-day predictions
COSMOS 1637 is classified as:


NORAD ID: 15619
Int'l Code: 1985-023C
Perigee: 1,471.3 km
Apogee: 1,495.4 km
Inclination: 74.1 °
Period: 115.5 minutes
Semi major axis: 7854 km
RCS: 0.7025 m2 (medium)
Launch date: March 21, 1985
Source: Commonwealth of Independent States (former USSR) (CIS)
Launch site: PLESETSK MISSILE AND SPACE COMPLEX (PKMTR)
aabbcc
Your satellite tracking list
Your tracking list is empty




NASA's NSSDC Master Catalog

Two Line Element Set (TLE):
1 15619U 85023C   18023.57267766 -.00000013  00000-0  20510-4 0  9997
2 15619  74.0525 197.1790 0015367 207.5169 218.7103 12.47198433495623
Source of the keplerian elements: AFSPC